Time,TemperatureF,DewpointF,PressureIn,WindDirection,WindDirectionDegrees,WindSpeedMPH,WindSpeedGustMPH,Humidity,HourlyPrecipIn,Conditions,Clouds,dailyrainin,SoftwareType,DateUTC
2013-11-10 00:03:00,39.2,32.3,30.16,WNW,294,4.5,8.1,76,0.00,CLR,,0.00,WeatherDisplay:10.37,2013-11-10 06:03:00,
2013-11-10 00:08:00,39.0,32.1,30.16,West,261,5.5,11.5,76,0.00,CLR,,0.00,WeatherDisplay:10.37,2013-11-10 06:08:00,
2013-11-10 00:14:00,38.9,32.0,30.16,WNW,293,8.1,16.1,76,0.00,CLR,,0.00,WeatherDisplay:10.37,2013-11-10 06:14:00,
2013-11-10 00:19:00,38.9,32.0,30.17,WNW,283,4.5,8.1,76,0.00,CLR,,0.00,WeatherDisplay:10.37,2013-11-10 06:19:00,
2013-11-10 00:24:00,38.7,31.8,30.17,WNW,290,4.9,11.5,76,0.00,CLR,,0.00,WeatherDisplay:10.37,2013-11-10 06:24:00,
2013-11-10 00:29:00,38.6,31.7,30.17,West,281,4.4,9.2,76,0.00,CLR,,0.00,WeatherDisplay:10.37,2013-11-10 06:29:00,
2013-11-10 00:35:00,38.5,31.6,30.17,West,267,5.2,8.1,76,0.00,CLR,,0.00,WeatherDisplay:10.37,2013-11-10 06:35:00,
2013-11-10 00:40:00,38.4,31.8,30.17,West,279,5.2,11.5,77,0.00,CLR,,0.00,WeatherDisplay:10.37,2013-11-10 06:40:00,
2013-11-10 00:46:00,38.1,31.5,30.17,NW,306,6.2,9.2,77,0.00,CLR,,0.00,WeatherDisplay:10.37,2013-11-10 06:46:00,
2013-11-10 00:51:00,37.9,31.3,30.17,WSW,243,3.4,7.0,77,0.00,CLR,,0.00,WeatherDisplay:10.37,2013-11-10 06:51:00,
2013-11-10 00:57:00,37.6,31.4,30.17,West,261,3.7,8.1,78,0.00,CLR,,0.00,WeatherDisplay:10.37,2013-11-10 06:57:00,
2013-11-10 01:02:00,37.5,31.6,30.17,WSW,243,4.3,7.0,79,0.00,CLR,,0.00,WeatherDisplay:10.37,2013-11-10 07:02:00,
2013-11-10 01:07:00,37.5,31.6,30.17,WSW,251,3.7,8.1,79,0.00,CLR,,0.00,WeatherDisplay:10.37,2013-11-10 07:07:00,
2013-11-10 01:12:00,37.2,31.3,30.17,WSW,250,5.3,9.2,79,0.00,CLR,,0.00,WeatherDisplay:10.37,2013-11-10 07:12:00,
2013-11-10 01:18:00,37.0,31.1,30.18,WSW,255,5.4,8.1,79,0.00,CLR,,0.00,WeatherDisplay:10.37,2013-11-10 07:18:00,
2013-11-10 01:23:00,36.9,31.0,30.18,WSW,245,6.1,10.4,79,0.00,CLR,,0.00,WeatherDisplay:10.37,2013-11-10 07:23:00,
2013-11-10 01:29:00,36.8,31.2,30.18,WSW,257,5.6,8.1,80,0.00,CLR,,0.00,WeatherDisplay:10.37,2013-11-10 07:29:00,
2013-11-10 01:34:00,36.7,31.1,30.18,West,259,3.4,6.9,80,0.00,CLR,,0.00,WeatherDisplay:10.37,2013-11-10 07:34:00,
2013-11-10 01:39:00,36.5,30.9,30.18,WSW,248,6.5,12.7,80,0.00,CLR,,0.00,WeatherDisplay:10.37,2013-11-10 07:39:00,
2013-11-10 01:44:00,36.3,31.0,30.18,WSW,251,5.5,8.1,81,0.00,CLR,,0.00,WeatherDisplay:10.37,2013-11-10 07:44:00,
2013-11-10 01:49:00,36.1,30.8,30.18,WSW,254,6.0,11.5,81,0.00,CLR,,0.00,WeatherDisplay:10.37,2013-11-10 07:49:00,
2013-11-10 01:54:00,36.1,31.1,30.19,WSW,245,4.6,10.4,82,0.00,CLR,,0.00,WeatherDisplay:10.37,2013-11-10 07:54:00,
2013-11-10 01:59:00,36.1,31.1,30.19,West,267,3.9,5.8,82,0.00,CLR,,0.00,WeatherDisplay:10.37,2013-11-10 07:59:00,
2013-11-10 02:04:00,35.9,30.6,30.19,WSW,248,5.8,9.2,81,0.00,CLR,,0.00,WeatherDisplay:10.37,2013-11-10 08:04:00,
2013-11-10 02:09:00,36.0,31.0,30.19,West,263,2.6,6.9,82,0.00,CLR,,0.00,WeatherDisplay:10.37,2013-11-10 08:09:00,
2013-11-10 02:14:00,35.8,30.5,30.19,WSW,258,4.8,8.1,81,0.00,CLR,,0.00,WeatherDisplay:10.37,2013-11-10 08:14:00,
2013-11-10 02:19:00,35.6,30.6,30.19,North,355,3.7,5.8,82,0.00,CLR,,0.00,WeatherDisplay:10.37,2013-11-10 08:19:00,
2013-11-10 02:24:00,35.5,30.5,30.19,West,275,3.5,6.9,82,0.00,CLR,,0.00,WeatherDisplay:10.37,2013-11-10 08:24:00,
2013-11-10 02:29:00,35.5,30.5,30.20,West,269,3.3,8.1,82,0.00,CLR,,0.00,WeatherDisplay:10.37,2013-11-10 08:29:00,
2013-11-10 02:34:00,35.5,30.5,30.20,West,264,2.5,5.0,82,0.00,CLR,,0.00,WeatherDisplay:10.37,2013-11-10 08:34:00,
2013-11-10 02:39:00,35.3,30.4,30.20,West,262,1.3,3.5,82,0.00,CLR,,0.00,WeatherDisplay:10.37,2013-11-10 08:39:00,
2013-11-10 02:44:00,35.0,30.1,30.20,WSW,248,4.6,9.0,82,0.00,CLR,,0.00,WeatherDisplay:10.37,2013-11-10 08:44:00,
2013-11-10 02:49:00,35.0,30.1,30.21,West,277,2.8,4.6,82,0.00,CLR,,0.00,WeatherDisplay:10.37,2013-11-10 08:49:00,
2013-11-10 02:54:00,34.9,30.3,30.21,SW,235,3.6,8.1,83,0.00,CLR,,0.00,WeatherDisplay:10.37,2013-11-10 08:54:00,
2013-11-10 02:59:00,34.8,30.2,30.21,West,274,3.6,8.1,83,0.00,CLR,,0.00,WeatherDisplay:10.37,2013-11-10 08:59:00,
2013-11-10 03:04:00,34.6,30.0,30.21,West,266,4.4,5.0,83,0.00,CLR,,0.00,WeatherDisplay:10.37,2013-11-10 09:04:00,
2013-11-10 03:09:00,34.4,30.1,30.21,West,278,5.2,9.2,84,0.00,CLR,,0.00,WeatherDisplay:10.37,2013-11-10 09:09:00,
2013-11-10 03:14:00,34.4,30.1,30.21,SW,232,2.7,8.1,84,0.00,CLR,,0.00,WeatherDisplay:10.37,2013-11-10 09:14:00,
2013-11-10 03:19:00,34.2,29.9,30.22,WSW,255,3.3,6.9,84,0.00,CLR,,0.00,WeatherDisplay:10.37,2013-11-10 09:19:00,
2013-11-10 03:24:00,34.1,29.8,30.22,WSW,256,5.7,10.4,84,0.00,CLR,,0.00,WeatherDisplay:10.37,2013-11-10 09:24:00,
2013-11-10 03:29:00,34.2,29.9,30.22,West,266,3.4,4.6,84,0.00,CLR,,0.00,WeatherDisplay:10.37,2013-11-10 09:29:00,
2013-11-10 03:34:00,34.1,29.8,30.22,WSW,254,4.3,10.4,84,0.00,CLR,,0.00,WeatherDisplay:10.37,2013-11-10 09:34:00,
2013-11-10 03:39:00,34.0,29.7,30.22,West,275,3.3,5.8,84,0.00,CLR,,0.00,WeatherDisplay:10.37,2013-11-10 09:39:00,
2013-11-10 03:44:00,34.0,29.7,30.23,WNW,298,2.4,4.6,84,0.00,CLR,,0.00,WeatherDisplay:10.37,2013-11-10 09:44:00,
2013-11-10 03:49:00,33.8,29.5,30.23,West,265,2.8,7.0,84,0.00,CLR,,0.00,WeatherDisplay:10.37,2013-11-10 09:49:00,
2013-11-10 03:54:00,33.8,29.5,30.23,WNW,285,1.2,4.6,84,0.00,CLR,,0.00,WeatherDisplay:10.37,2013-11-10 09:54:00,
2013-11-10 04:00:00,33.6,29.3,30.23,NW,304,3.1,6.9,84,0.00,CLR,,0.00,WeatherDisplay:10.37,2013-11-10 10:00:00,
2013-11-10 04:05:00,33.6,29.3,30.24,West,261,1.6,4.6,84,0.00,CLR,,0.00,WeatherDisplay:10.37,2013-11-10 10:05:00,
2013-11-10 04:10:00,33.5,29.2,30.24,WNW,283,3.1,5.8,84,0.00,CLR,,0.00,WeatherDisplay:10.37,2013-11-10 10:10:00,
2013-11-10 04:15:00,33.4,29.1,30.24,WNW,282,1.9,3.5,84,0.00,CLR,,0.00,WeatherDisplay:10.37,2013-11-10 10:15:00,
2013-11-10 04:20:00,33.2,28.9,30.24,West,275,2.1,3.5,84,0.00,CLR,,0.00,WeatherDisplay:10.37,2013-11-10 10:20:00,
2013-11-10 04:26:00,33.2,29.2,30.24,WSW,257,3.3,5.0,85,0.00,CLR,,0.00,WeatherDisplay:10.37,2013-11-10 10:26:00,
2013-11-10 04:31:00,33.1,29.1,30.25,West,267,3.4,5.0,85,0.00,CLR,,0.00,WeatherDisplay:10.37,2013-11-10 10:31:00,
2013-11-10 04:36:00,33.0,29.0,30.25,WSW,250,2.3,4.6,85,0.00,CLR,,0.00,WeatherDisplay:10.37,2013-11-10 10:36:00,
2013-11-10 04:39:00,32.9,28.9,30.25,NW,315,2.4,6.0,85,0.00,CLR,,0.00,WeatherDisplay:10.37,2013-11-10 10:39:00,
2013-11-10 04:44:00,32.9,28.9,30.25,NNW,331,3.3,4.6,85,0.00,CLR,,0.00,WeatherDisplay:10.37,2013-11-10 10:44:00,
2013-11-10 04:49:00,32.8,28.8,30.26,West,279,3.5,6.9,85,0.00,CLR,,0.00,WeatherDisplay:10.37,2013-11-10 10:49:00,
2013-11-10 04:54:00,32.8,28.8,30.26,West,267,3.5,4.6,85,0.00,CLR,,0.00,WeatherDisplay:10.37,2013-11-10 10:54:00,
2013-11-10 04:59:00,32.8,28.8,30.26,WSW,244,2.3,4.6,85,0.00,CLR,,0.00,WeatherDisplay:10.37,2013-11-10 10:59:00,
2013-11-10 05:04:00,32.6,28.6,30.27,WNW,285,2.4,3.5,85,0.00,CLR,,0.00,WeatherDisplay:10.37,2013-11-10 11:04:00,
2013-11-10 05:09:00,32.5,28.5,30.27,WNW,288,2.3,5.8,85,0.00,CLR,,0.00,WeatherDisplay:10.37,2013-11-10 11:09:00,
2013-11-10 05:14:00,32.3,28.6,30.27,West,277,1.6,3.5,86,0.00,CLR,,0.00,WeatherDisplay:10.37,2013-11-10 11:14:00,
2013-11-10 05:19:00,31.9,28.2,30.27,West,272,2.3,4.6,86,0.00,CLR,,0.00,WeatherDisplay:10.37,2013-11-10 11:19:00,
2013-11-10 05:24:00,31.6,28.2,30.28,SW,234,1.1,5.0,87,0.00,CLR,,0.00,WeatherDisplay:10.37,2013-11-10 11:24:00,
2013-11-10 05:29:00,31.3,27.9,30.28,WSW,258,2.6,3.5,87,0.00,CLR,,0.00,WeatherDisplay:10.37,2013-11-10 11:29:00,
2013-11-10 05:34:00,31.3,27.9,30.28,West,262,1.0,3.5,87,0.00,CLR,,0.00,WeatherDisplay:10.37,2013-11-10 11:34:00,
2013-11-10 05:39:00,31.3,28.2,30.28,WSW,252,2.4,4.0,88,0.00,CLR,,0.00,WeatherDisplay:10.37,2013-11-10 11:39:00,
2013-11-10 05:45:00,31.3,28.2,30.28,WNW,301,2.1,4.6,88,0.00,CLR,,0.00,WeatherDisplay:10.37,2013-11-10 11:45:00,
2013-11-10 05:50:00,31.3,28.2,30.29,WSW,254,1.2,2.3,88,0.00,CLR,,0.00,WeatherDisplay:10.37,2013-11-10 11:50:00,
2013-11-10 05:55:00,31.3,28.2,30.29,WNW,301,2.1,3.5,88,0.00,CLR,,0.00,WeatherDisplay:10.37,2013-11-10 11:55:00,
2013-11-10 06:01:00,31.4,28.3,30.29,West,269,1.5,3.5,88,0.00,CLR,,0.00,WeatherDisplay:10.37,2013-11-10 12:01:00,
2013-11-10 06:06:00,31.5,28.4,30.29,WNW,287,0.4,3.5,88,0.00,CLR,,0.00,WeatherDisplay:10.37,2013-11-10 12:06:00,
2013-11-10 06:12:00,31.5,28.4,30.30,West,271,0.8,3.5,88,0.00,CLR,,0.00,WeatherDisplay:10.37,2013-11-10 12:12:00,
2013-11-10 06:17:00,31.6,28.5,30.29,West,281,2.4,4.6,88,0.00,CLR,,0.00,WeatherDisplay:10.37,2013-11-10 12:17:00,
2013-11-10 06:23:00,31.5,28.4,30.29,NW,311,1.4,3.5,88,0.00,CLR,,0.00,WeatherDisplay:10.37,2013-11-10 12:23:00,
2013-11-10 06:28:00,31.3,28.2,30.30,West,265,2.8,5.8,88,0.00,CLR,,0.00,WeatherDisplay:10.37,2013-11-10 12:28:00,
2013-11-10 06:33:00,31.1,28.0,30.30,West,264,3.4,5.8,88,0.00,CLR,,0.00,WeatherDisplay:10.37,2013-11-10 12:33:00,
2013-11-10 06:38:00,30.8,27.7,30.30,WSW,258,2.2,4.6,88,0.00,CLR,,0.00,WeatherDisplay:10.37,2013-11-10 12:38:00,
2013-11-10 06:44:00,30.7,27.8,30.31,WSW,251,2.9,4.6,89,0.00,CLR,,0.00,WeatherDisplay:10.37,2013-11-10 12:44:00,
2013-11-10 06:49:00,30.6,27.7,30.31,WSW,256,3.3,4.6,89,0.00,CLR,,0.00,WeatherDisplay:10.37,2013-11-10 12:49:00,
2013-11-10 06:55:00,30.6,27.7,30.31,West,265,4.6,8.1,89,0.00,CLR,,0.00,WeatherDisplay:10.37,2013-11-10 12:55:00,
2013-11-10 07:00:00,30.6,27.7,30.32,NW,304,1.7,3.5,89,0.00,CLR,,0.00,WeatherDisplay:10.37,2013-11-10 13:00:00,
2013-11-10 07:05:00,30.5,27.6,30.32,WSW,254,2.1,3.5,89,0.00,CLR,,0.00,WeatherDisplay:10.37,2013-11-10 13:05:00,
2013-11-10 07:11:00,30.5,27.9,30.32,WSW,247,3.5,4.6,90,0.00,,,0.00,WeatherDisplay:10.37,2013-11-10 13:11:00,
2013-11-10 07:16:00,30.7,28.1,30.33,West,271,4.6,4.6,90,0.00,,,0.00,WeatherDisplay:10.37,2013-11-10 13:16:00,
2013-11-10 07:21:00,30.9,28.3,30.33,West,273,4.0,5.0,90,0.00,CLR,,0.00,WeatherDisplay:10.37,2013-11-10 13:21:00,
2013-11-10 07:27:00,31.3,28.7,30.33,West,273,2.3,8.1,90,0.00,CLR,,0.00,WeatherDisplay:10.37,2013-11-10 13:27:00,
2013-11-10 07:32:00,31.6,29.0,30.34,West,259,3.6,6.0,90,0.00,CLR,,0.00,WeatherDisplay:10.37,2013-11-10 13:32:00,
2013-11-10 07:38:00,31.9,29.0,30.34,WSW,241,4.7,9.2,89,0.00,CLR,,0.00,WeatherDisplay:10.37,2013-11-10 13:38:00,
2013-11-10 07:43:00,32.2,29.3,30.34,WSW,248,4.7,5.8,89,0.00,CLR,,0.00,WeatherDisplay:10.37,2013-11-10 13:43:00,
2013-11-10 07:48:00,32.4,29.5,30.35,WSW,253,4.5,9.2,89,0.00,CLR,,0.00,WeatherDisplay:10.37,2013-11-10 13:48:00,
2013-11-10 07:54:00,32.6,29.7,30.35,West,260,3.6,6.9,89,0.00,CLR,,0.00,WeatherDisplay:10.37,2013-11-10 13:54:00,
2013-11-10 07:59:00,32.9,29.7,30.35,NW,308,3.5,6.9,88,0.00,CLR,,0.00,WeatherDisplay:10.37,2013-11-10 13:59:00,
2013-11-10 08:04:00,33.3,30.1,30.35,WNW,282,5.2,6.9,88,0.00,CLR,,0.00,WeatherDisplay:10.37,2013-11-10 14:04:00,
2013-11-10 08:10:00,33.7,30.2,30.35,WSW,246,3.9,5.8,87,0.00,CLR,,0.00,WeatherDisplay:10.37,2013-11-10 14:10:00,
2013-11-10 08:15:00,33.9,30.2,30.36,West,272,2.9,5.0,86,0.00,CLR,,0.00,WeatherDisplay:10.37,2013-11-10 14:15:00,
2013-11-10 08:21:00,34.3,30.5,30.36,NW,309,4.0,5.8,86,0.00,CLR,,0.00,WeatherDisplay:10.37,2013-11-10 14:21:00,
2013-11-10 08:26:00,34.7,30.9,30.36,WSW,257,4.4,6.9,86,0.00,CLR,,0.00,WeatherDisplay:10.37,2013-11-10 14:26:00,
2013-11-10 08:31:00,35.1,31.0,30.36,WNW,296,2.8,4.6,85,0.00,CLR,,0.00,WeatherDisplay:10.37,2013-11-10 14:31:00,
2013-11-10 08:37:00,35.5,31.1,30.37,WSW,240,3.4,6.9,84,0.00,CLR,,0.00,WeatherDisplay:10.37,2013-11-10 14:37:00,
2013-11-10 08:42:00,35.9,31.2,30.37,WNW,284,1.3,3.5,83,0.00,CLR,,0.00,WeatherDisplay:10.37,2013-11-10 14:42:00,
2013-11-10 08:47:00,36.2,31.2,30.37,WSW,254,2.6,4.6,82,0.00,CLR,,0.00,WeatherDisplay:10.37,2013-11-10 14:47:00,
2013-11-10 08:52:00,36.2,31.2,30.37,West,267,4.0,8.1,82,0.00,CLR,,0.00,WeatherDisplay:10.37,2013-11-10 14:52:00,
2013-11-10 08:57:00,36.5,31.5,30.37,West,265,2.2,3.5,82,0.00,CLR,,0.00,WeatherDisplay:10.37,2013-11-10 14:57:00,
2013-11-10 09:03:00,36.8,31.5,30.37,West,265,1.6,4.6,81,0.00,CLR,,0.00,WeatherDisplay:10.37,2013-11-10 15:03:00,
2013-11-10 09:08:00,37.3,32.0,30.38,West,261,5.0,6.9,81,0.00,CLR,,0.00,WeatherDisplay:10.37,2013-11-10 15:08:00,
2013-11-10 09:14:00,37.5,31.9,30.38,WNW,293,2.7,4.6,80,0.00,CLR,,0.00,WeatherDisplay:10.37,2013-11-10 15:14:00,
2013-11-10 09:19:00,37.6,32.3,30.38,WSW,255,3.2,8.1,81,0.00,CLR,,0.00,WeatherDisplay:10.37,2013-11-10 15:19:00,
2013-11-10 09:24:00,37.9,32.6,30.38,WSW,254,5.4,8.1,81,0.00,CLR,,0.00,WeatherDisplay:10.37,2013-11-10 15:24:00,
2013-11-10 09:29:00,37.9,32.6,30.38,WSW,246,4.6,9.2,81,0.00,CLR,,0.00,WeatherDisplay:10.37,2013-11-10 15:29:00,
2013-11-10 09:34:00,38.1,32.5,30.38,NW,306,6.3,8.1,80,0.00,CLR,,0.00,WeatherDisplay:10.37,2013-11-10 15:34:00,
2013-11-10 09:39:00,38.6,33.0,30.38,WSW,242,4.9,8.1,80,0.00,CLR,,0.00,WeatherDisplay:10.37,2013-11-10 15:39:00,
2013-11-10 09:44:00,38.9,32.9,30.38,SW,227,4.5,9.2,79,0.00,CLR,,0.00,WeatherDisplay:10.37,2013-11-10 15:44:00,
2013-11-10 09:49:00,39.1,32.8,30.38,WSW,254,3.8,6.0,78,0.00,CLR,,0.00,WeatherDisplay:10.37,2013-11-10 15:49:00,
2013-11-10 09:54:00,39.2,32.6,30.38,West,263,2.7,4.6,77,0.00,CLR,,0.00,WeatherDisplay:10.37,2013-11-10 15:54:00,
2013-11-10 09:59:00,39.2,32.6,30.38,West,279,1.8,3.5,77,0.00,CLR,,0.00,WeatherDisplay:10.37,2013-11-10 15:59:00,
2013-11-10 10:04:00,39.4,33.1,30.38,WSW,243,5.1,9.2,78,0.00,CLR,,0.00,WeatherDisplay:10.37,2013-11-10 16:04:00,
2013-11-10 10:09:00,39.8,33.2,30.38,SW,234,2.9,5.0,77,0.00,CLR,,0.00,WeatherDisplay:10.37,2013-11-10 16:09:00,
2013-11-10 10:14:00,40.3,33.7,30.38,WNW,283,1.5,3.5,77,0.00,CLR,,0.00,WeatherDisplay:10.37,2013-11-10 16:14:00,
2013-11-10 10:19:00,40.4,33.1,30.38,WNW,302,2.7,4.6,75,0.00,CLR,,0.00,WeatherDisplay:10.37,2013-11-10 16:19:00,
2013-11-10 10:24:00,40.7,33.1,30.38,WNW,284,2.7,4.6,74,0.00,CLR,,0.00,WeatherDisplay:10.37,2013-11-10 16:24:00,
2013-11-10 10:29:00,40.7,32.7,30.37,WNW,296,3.4,4.6,73,0.00,CLR,,0.00,WeatherDisplay:10.37,2013-11-10 16:29:00,
2013-11-10 10:34:00,41.0,33.0,30.37,WSW,251,2.7,3.5,73,0.00,CLR,,0.00,WeatherDisplay:10.37,2013-11-10 16:34:00,
2013-11-10 10:40:00,41.6,33.2,30.37,WSW,258,1.7,4.6,72,0.00,CLR,,0.00,WeatherDisplay:10.37,2013-11-10 16:40:00,
2013-11-10 10:45:00,41.8,33.4,30.37,WSW,248,2.4,7.0,72,0.00,CLR,,0.00,WeatherDisplay:10.37,2013-11-10 16:45:00,
2013-11-10 10:50:00,41.7,33.3,30.37,NW,314,0.8,3.5,72,0.00,CLR,,0.00,WeatherDisplay:10.37,2013-11-10 16:50:00,
2013-11-10 10:55:00,42.2,33.5,30.37,NW,321,2.9,4.6,71,0.00,CLR,,0.00,WeatherDisplay:10.37,2013-11-10 16:55:00,
2013-11-10 11:01:00,42.0,32.9,30.37,NW,325,3.1,4.6,70,0.00,CLR,,0.00,WeatherDisplay:10.37,2013-11-10 17:01:00,
2013-11-10 11:06:00,42.5,33.8,30.37,NW,312,0.9,5.0,71,0.00,CLR,,0.00,WeatherDisplay:10.37,2013-11-10 17:06:00,
2013-11-10 11:12:00,42.5,33.4,30.36,West,275,1.2,3.5,70,0.00,CLR,,0.00,WeatherDisplay:10.37,2013-11-10 17:12:00,
2013-11-10 11:17:00,43.8,34.6,30.36,WSW,255,1.4,3.5,70,0.00,CLR,,0.00,WeatherDisplay:10.37,2013-11-10 17:17:00,
2013-11-10 11:22:00,43.7,33.8,30.36,NW,317,3.2,6.9,68,0.00,CLR,,0.00,WeatherDisplay:10.37,2013-11-10 17:22:00,
2013-11-10 11:28:00,43.5,34.4,30.35,WSW,250,2.3,3.5,70,0.00,CLR,,0.00,WeatherDisplay:10.37,2013-11-10 17:28:00,
2013-11-10 11:33:00,43.7,33.5,30.35,NW,317,1.2,3.5,67,0.00,CLR,,0.00,WeatherDisplay:10.37,2013-11-10 17:33:00,
2013-11-10 11:38:00,44.2,33.6,30.35,NW,326,4.2,4.6,66,0.00,CLR,,0.00,WeatherDisplay:10.37,2013-11-10 17:38:00,
2013-11-10 11:44:00,44.6,33.6,30.35,WNW,288,2.8,4.6,65,0.00,CLR,,0.00,WeatherDisplay:10.37,2013-11-10 17:44:00,
2013-11-10 11:49:00,44.5,33.1,30.35,NW,326,2.0,5.8,64,0.00,CLR,,0.00,WeatherDisplay:10.37,2013-11-10 17:49:00,
2013-11-10 11:55:00,44.7,32.9,30.35,WNW,282,1.0,3.5,63,0.00,CLR,,0.00,WeatherDisplay:10.37,2013-11-10 17:55:00,
2013-11-10 12:00:00,44.8,33.7,30.35,WNW,293,2.4,3.5,65,0.00,CLR,,0.00,WeatherDisplay:10.37,2013-11-10 18:00:00,
2013-11-10 12:05:00,44.5,32.7,30.35,NW,325,2.8,3.5,63,0.00,CLR,,0.00,WeatherDisplay:10.37,2013-11-10 18:05:00,
2013-11-10 12:11:00,45.1,34.0,30.35,WNW,284,2.6,5.8,65,0.00,CLR,,0.00,WeatherDisplay:10.37,2013-11-10 18:11:00,
2013-11-10 12:16:00,45.3,34.2,30.35,WSW,257,4.5,6.9,65,0.00,CLR,,0.00,WeatherDisplay:10.37,2013-11-10 18:16:00,
2013-11-10 12:21:00,45.1,34.0,30.35,SW,223,4.9,9.2,65,0.00,CLR,,0.00,WeatherDisplay:10.37,2013-11-10 18:21:00,
2013-11-10 12:26:00,45.5,34.4,30.35,West,261,4.1,8.1,65,0.00,CLR,,0.00,WeatherDisplay:10.37,2013-11-10 18:26:00,
2013-11-10 12:31:00,45.8,34.3,30.35,WSW,252,6.3,10.4,64,0.00,CLR,,0.00,WeatherDisplay:10.37,2013-11-10 18:31:00,
2013-11-10 12:36:00,45.5,34.0,30.34,West,259,1.7,4.0,64,0.00,CLR,,0.00,WeatherDisplay:10.37,2013-11-10 18:36:00,
2013-11-10 12:41:00,45.7,34.2,30.34,SSW,202,6.4,9.2,64,0.00,CLR,,0.00,WeatherDisplay:10.37,2013-11-10 18:41:00,
2013-11-10 12:46:00,45.7,34.6,30.34,SW,215,3.5,10.4,65,0.00,CLR,,0.00,WeatherDisplay:10.37,2013-11-10 18:46:00,
2013-11-10 12:51:00,45.5,34.4,30.34,West,278,2.7,4.6,65,0.00,CLR,,0.00,WeatherDisplay:10.37,2013-11-10 18:51:00,
2013-11-10 12:56:00,45.6,34.1,30.34,SW,219,4.3,5.8,64,0.00,CLR,,0.00,WeatherDisplay:10.37,2013-11-10 18:56:00,
2013-11-10 13:01:00,45.6,34.5,30.34,SSW,207,4.3,5.8,65,0.00,CLR,,0.00,WeatherDisplay:10.37,2013-11-10 19:01:00,
2013-11-10 13:06:00,46.0,34.5,30.34,WSW,237,4.6,6.9,64,0.00,CLR,,0.00,WeatherDisplay:10.37,2013-11-10 19:06:00,
2013-11-10 13:11:00,46.1,34.2,30.34,WNW,296,2.1,5.0,63,0.00,CLR,,0.00,WeatherDisplay:10.37,2013-11-10 19:11:00,
2013-11-10 13:16:00,45.9,34.0,30.33,WSW,242,2.7,4.6,63,0.00,CLR,,0.00,WeatherDisplay:10.37,2013-11-10 19:16:00,
2013-11-10 13:21:00,45.9,34.4,30.33,West,264,3.7,5.8,64,0.00,CLR,,0.00,WeatherDisplay:10.37,2013-11-10 19:21:00,
2013-11-10 13:26:00,45.9,34.0,30.33,WSW,250,3.3,5.8,63,0.00,CLR,,0.00,WeatherDisplay:10.37,2013-11-10 19:26:00,
2013-11-10 13:31:00,46.1,34.2,30.33,WSW,244,2.7,4.6,63,0.00,CLR,,0.00,WeatherDisplay:10.37,2013-11-10 19:31:00,
2013-11-10 13:36:00,45.6,33.3,30.33,WNW,284,0.7,2.3,62,0.00,CLR,,0.00,WeatherDisplay:10.37,2013-11-10 19:36:00,
2013-11-10 13:42:00,45.9,34.0,30.33,SSW,205,3.8,7.0,63,0.00,CLR,,0.00,WeatherDisplay:10.37,2013-11-10 19:42:00,
2013-11-10 13:47:00,46.3,33.2,30.33,SW,226,5.1,6.9,60,0.00,CLR,,0.00,WeatherDisplay:10.37,2013-11-10 19:47:00,
2013-11-10 13:53:00,46.1,33.4,30.33,South,182,5.1,6.9,61,0.00,CLR,,0.00,WeatherDisplay:10.37,2013-11-10 19:53:00,
2013-11-10 13:58:00,46.0,33.3,30.32,SSW,197,1.5,4.0,61,0.00,CLR,,0.00,WeatherDisplay:10.37,2013-11-10 19:58:00,
2013-11-10 14:03:00,46.4,33.7,30.32,WNW,300,1.7,3.5,61,0.00,CLR,,0.00,WeatherDisplay:10.37,2013-11-10 20:03:00,
2013-11-10 14:09:00,46.2,33.5,30.32,WSW,250,1.2,2.3,61,0.00,CLR,,0.00,WeatherDisplay:10.37,2013-11-10 20:09:00,
2013-11-10 14:14:00,46.0,32.9,30.32,WSW,251,1.5,3.5,60,0.00,CLR,,0.00,WeatherDisplay:10.37,2013-11-10 20:14:00,
2013-11-10 14:19:00,45.8,32.3,30.32,WSW,251,0.7,2.3,59,0.00,CLR,,0.00,WeatherDisplay:10.37,2013-11-10 20:19:00,
2013-11-10 14:25:00,46.2,33.5,30.32,South,189,3.0,4.6,61,0.00,CLR,,0.00,WeatherDisplay:10.37,2013-11-10 20:25:00,
2013-11-10 14:30:00,46.5,33.8,30.31,SW,230,4.2,8.1,61,0.00,CLR,,0.00,WeatherDisplay:10.37,2013-11-10 20:30:00,
2013-11-10 14:36:00,46.3,32.7,30.32,SSW,210,2.9,6.0,59,0.00,CLR,,0.00,WeatherDisplay:10.37,2013-11-10 20:36:00,
2013-11-10 14:41:00,46.1,33.0,30.32,SSW,207,4.4,6.9,60,0.00,CLR,,0.00,WeatherDisplay:10.37,2013-11-10 20:41:00,
2013-11-10 14:46:00,46.6,33.0,30.32,WSW,245,3.2,5.8,59,0.00,CLR,,0.00,WeatherDisplay:10.37,2013-11-10 20:46:00,
2013-11-10 14:52:00,46.4,33.3,30.32,SW,232,3.1,4.6,60,0.00,CLR,,0.00,WeatherDisplay:10.37,2013-11-10 20:52:00,
2013-11-10 14:57:00,46.2,32.7,30.32,SW,219,3.8,5.8,59,0.00,CLR,,0.00,WeatherDisplay:10.37,2013-11-10 20:57:00,
2013-11-10 15:02:00,46.1,32.1,30.31,SSW,197,6.7,10.4,58,0.00,CLR,,0.00,WeatherDisplay:10.37,2013-11-10 21:02:00,
2013-11-10 15:08:00,46.2,32.7,30.31,SSW,193,6.6,10.4,59,0.00,CLR,,0.00,WeatherDisplay:10.37,2013-11-10 21:08:00,
2013-11-10 15:13:00,46.1,32.6,30.31,South,190,3.2,9.0,59,0.00,CLR,,0.00,WeatherDisplay:10.37,2013-11-10 21:13:00,
2013-11-10 15:18:00,46.1,32.6,30.32,WSW,242,2.8,4.0,59,0.00,CLR,,0.00,WeatherDisplay:10.37,2013-11-10 21:18:00,
2013-11-10 15:23:00,46.1,32.6,30.32,WSW,246,6.0,9.0,59,0.00,CLR,,0.00,WeatherDisplay:10.37,2013-11-10 21:23:00,
2013-11-10 15:28:00,46.1,32.6,30.32,South,188,5.9,7.0,59,0.00,CLR,,0.00,WeatherDisplay:10.37,2013-11-10 21:28:00,
2013-11-10 15:33:00,46.0,32.5,30.32,SW,214,3.2,8.0,59,0.00,CLR,,0.00,WeatherDisplay:10.37,2013-11-10 21:33:00,
2013-11-10 15:38:00,45.8,32.7,30.32,WSW,247,4.9,8.1,60,0.00,CLR,,0.00,WeatherDisplay:10.37,2013-11-10 21:38:00,
2013-11-10 15:43:00,45.8,32.7,30.32,SW,234,1.5,6.9,60,0.00,CLR,,0.00,WeatherDisplay:10.37,2013-11-10 21:43:00,
2013-11-10 15:48:00,45.9,32.8,30.31,SSW,206,4.0,8.1,60,0.00,CLR,,0.00,WeatherDisplay:10.37,2013-11-10 21:48:00,
2013-11-10 15:53:00,45.8,32.7,30.31,SSW,201,4.5,5.8,60,0.00,CLR,,0.00,WeatherDisplay:10.37,2013-11-10 21:53:00,
2013-11-10 15:58:00,45.6,32.9,30.31,SSW,209,3.0,3.5,61,0.00,CLR,,0.00,WeatherDisplay:10.37,2013-11-10 21:58:00,
2013-11-10 16:03:00,45.4,32.7,30.31,South,173,3.6,4.6,61,0.00,CLR,,0.00,WeatherDisplay:10.37,2013-11-10 22:03:00,
2013-11-10 16:08:00,45.1,32.4,30.31,SSW,199,4.3,6.0,61,0.00,CLR,,0.00,WeatherDisplay:10.37,2013-11-10 22:08:00,
2013-11-10 16:13:00,44.9,32.7,30.31,South,191,2.6,4.6,62,0.00,CLR,,0.00,WeatherDisplay:10.37,2013-11-10 22:13:00,
2013-11-10 16:18:00,44.4,32.6,30.30,SSW,202,3.1,6.9,63,0.00,CLR,,0.00,WeatherDisplay:10.37,2013-11-10 22:18:00,
2013-11-10 16:23:00,43.7,32.7,30.30,South,174,2.4,4.6,65,0.00,CLR,,0.00,WeatherDisplay:10.37,2013-11-10 22:23:00,
2013-11-10 16:28:00,43.3,32.7,30.30,SSW,200,0.4,3.5,66,0.00,CLR,,0.00,WeatherDisplay:10.37,2013-11-10 22:28:00,
2013-11-10 16:33:00,42.7,32.5,30.30,SSW,200,0.2,1.2,67,0.00,CLR,,0.00,WeatherDisplay:10.37,2013-11-10 22:33:00,
2013-11-10 16:38:00,42.3,32.5,30.30,SSW,196,2.4,4.0,68,0.00,CLR,,0.00,WeatherDisplay:10.37,2013-11-10 22:38:00,
2013-11-10 16:44:00,41.9,32.5,30.30,SSW,196,2.1,4.6,69,0.00,CLR,,0.00,WeatherDisplay:10.37,2013-11-10 22:44:00,
2013-11-10 16:49:00,41.8,32.7,30.30,South,190,3.1,5.8,70,0.00,CLR,,0.00,WeatherDisplay:10.37,2013-11-10 22:49:00,
2013-11-10 16:54:00,41.9,32.8,30.30,SSW,202,1.9,3.5,70,0.00,CLR,,0.00,WeatherDisplay:10.37,2013-11-10 22:54:00,
2013-11-10 16:59:00,42.1,32.7,30.30,SSW,192,2.1,4.0,69,0.00,CLR,,0.00,WeatherDisplay:10.37,2013-11-10 22:59:00,
2013-11-10 17:04:00,42.1,32.7,30.30,SSW,210,1.8,3.5,69,0.00,CLR,,0.00,WeatherDisplay:10.37,2013-11-10 23:04:00,
2013-11-10 17:09:00,42.2,32.8,30.30,SSW,200,1.4,3.5,69,0.00,CLR,,0.00,WeatherDisplay:10.37,2013-11-10 23:09:00,
2013-11-10 17:14:00,42.3,32.8,30.30,SSW,209,0.6,3.5,69,0.00,CLR,,0.00,WeatherDisplay:10.37,2013-11-10 23:14:00,
2013-11-10 17:19:00,42.4,32.9,30.30,SSW,211,1.0,3.5,69,0.00,CLR,,0.00,WeatherDisplay:10.37,2013-11-10 23:19:00,
2013-11-10 17:24:00,42.5,33.0,30.30,SSW,210,1.8,3.5,69,0.00,CLR,,0.00,WeatherDisplay:10.37,2013-11-10 23:24:00,
2013-11-10 17:29:00,42.6,32.8,30.30,SW,216,1.8,2.0,68,0.00,CLR,,0.00,WeatherDisplay:10.37,2013-11-10 23:29:00,
2013-11-10 17:34:00,42.6,32.8,30.31,SW,223,0.9,2.0,68,0.00,CLR,,0.00,WeatherDisplay:10.37,2013-11-10 23:34:00,
2013-11-10 17:39:00,42.6,32.8,30.31,WSW,238,2.6,3.5,68,0.00,CLR,,0.00,WeatherDisplay:10.37,2013-11-10 23:39:00,
2013-11-10 17:44:00,42.6,32.8,30.31,SW,219,2.2,5.8,68,0.00,CLR,,0.00,WeatherDisplay:10.37,2013-11-10 23:44:00,
2013-11-10 17:49:00,42.5,33.0,30.31,SSW,199,3.1,3.5,69,0.00,CLR,,0.00,WeatherDisplay:10.37,2013-11-10 23:49:00,
2013-11-10 17:54:00,42.6,33.1,30.30,SSW,206,3.1,4.6,69,0.00,CLR,,0.00,WeatherDisplay:10.37,2013-11-10 23:54:00,
2013-11-10 17:59:00,42.6,33.1,30.30,SSW,207,1.9,3.5,69,0.00,CLR,,0.00,WeatherDisplay:10.37,2013-11-10 23:59:00,
2013-11-10 18:04:00,42.5,33.0,30.30,SSW,213,3.0,4.0,69,0.00,CLR,,0.00,WeatherDisplay:10.37,2013-11-11 00:04:00,
2013-11-10 18:10:00,42.5,33.4,30.30,South,188,2.1,3.5,70,0.00,CLR,,0.00,WeatherDisplay:10.37,2013-11-11 00:10:00,
2013-11-10 18:15:00,42.4,33.3,30.30,South,182,2.3,3.5,70,0.00,CLR,,0.00,WeatherDisplay:10.37,2013-11-11 00:15:00,
2013-11-10 18:20:00,42.3,33.6,30.30,South,188,1.6,3.5,71,0.00,CLR,,0.00,WeatherDisplay:10.37,2013-11-11 00:20:00,
2013-11-10 18:25:00,42.2,33.5,30.30,SSW,205,2.7,4.0,71,0.00,CLR,,0.00,WeatherDisplay:10.37,2013-11-11 00:25:00,
2013-11-10 18:30:00,42.1,33.7,30.30,SSW,194,2.4,3.5,72,0.00,CLR,,0.00,WeatherDisplay:10.37,2013-11-11 00:30:00,
2013-11-10 18:35:00,42.0,33.6,30.30,SSW,194,1.3,3.5,72,0.00,CLR,,0.00,WeatherDisplay:10.37,2013-11-11 00:35:00,
2013-11-10 18:41:00,41.7,33.7,30.30,SSW,194,1.9,3.5,73,0.00,CLR,,0.00,WeatherDisplay:10.37,2013-11-11 00:41:00,
2013-11-10 18:46:00,41.4,33.7,30.30,South,184,3.4,4.6,74,0.00,CLR,,0.00,WeatherDisplay:10.37,2013-11-11 00:46:00,
2013-11-10 18:51:00,41.4,33.7,30.30,SSE,167,3.0,3.5,74,0.00,CLR,,0.00,WeatherDisplay:10.37,2013-11-11 00:51:00,
2013-11-10 18:56:00,41.3,34.0,30.29,South,186,4.2,5.8,75,0.00,CLR,,0.00,WeatherDisplay:10.37,2013-11-11 00:56:00,
2013-11-10 19:02:00,41.2,33.9,30.29,South,181,3.1,5.8,75,0.00,CLR,,0.00,WeatherDisplay:10.37,2013-11-11 01:02:00,
2013-11-10 19:07:00,41.2,33.9,30.29,South,171,3.5,4.6,75,0.00,CLR,,0.00,WeatherDisplay:10.37,2013-11-11 01:07:00,
2013-11-10 19:13:00,41.3,34.0,30.29,South,184,3.8,4.6,75,0.00,CLR,,0.00,WeatherDisplay:10.37,2013-11-11 01:13:00,
2013-11-10 19:18:00,41.3,34.3,30.29,South,170,2.6,4.6,76,0.00,CLR,,0.00,WeatherDisplay:10.37,2013-11-11 01:18:00,
2013-11-10 19:23:00,41.3,34.3,30.29,South,187,2.5,4.6,76,0.00,CLR,,0.00,WeatherDisplay:10.37,2013-11-11 01:23:00,
2013-11-10 19:28:00,41.3,34.3,30.29,South,173,1.8,3.5,76,0.00,CLR,,0.00,WeatherDisplay:10.37,2013-11-11 01:28:00,
2013-11-10 19:33:00,41.2,34.5,30.29,South,191,2.6,4.0,77,0.00,CLR,,0.00,WeatherDisplay:10.37,2013-11-11 01:33:00,
2013-11-10 19:38:00,41.1,34.4,30.28,South,184,3.3,5.0,77,0.00,CLR,,0.00,WeatherDisplay:10.37,2013-11-11 01:38:00,
2013-11-10 19:43:00,41.1,34.4,30.29,South,184,2.6,3.5,77,0.00,CLR,,0.00,WeatherDisplay:10.37,2013-11-11 01:43:00,
2013-11-10 19:48:00,41.1,34.4,30.28,South,184,2.4,3.5,77,0.00,CLR,,0.00,WeatherDisplay:10.37,2013-11-11 01:48:00,
2013-11-10 19:54:00,41.0,34.3,30.28,South,181,1.8,3.5,77,0.00,CLR,,0.00,WeatherDisplay:10.37,2013-11-11 01:54:00,
2013-11-10 19:59:00,40.9,34.2,30.28,SSW,194,3.1,4.6,77,0.00,CLR,,0.00,WeatherDisplay:10.37,2013-11-11 01:59:00,
2013-11-10 20:04:00,40.9,34.2,30.27,SSE,148,2.8,4.0,77,0.00,CLR,,0.00,WeatherDisplay:10.37,2013-11-11 02:04:00,
2013-11-10 20:09:00,40.9,34.2,30.27,South,181,2.5,3.5,77,0.00,CLR,,0.00,WeatherDisplay:10.37,2013-11-11 02:09:00,
2013-11-10 20:14:00,40.9,34.2,30.27,South,178,2.0,3.5,77,0.00,CLR,,0.00,WeatherDisplay:10.37,2013-11-11 02:14:00,
2013-11-10 20:19:00,40.9,34.2,30.27,South,181,3.3,4.6,77,0.00,CLR,,0.00,WeatherDisplay:10.37,2013-11-11 02:19:00,
2013-11-10 20:24:00,40.8,34.1,30.27,SSE,159,3.5,3.5,77,0.00,CLR,,0.00,WeatherDisplay:10.37,2013-11-11 02:24:00,
2013-11-10 20:29:00,40.7,34.4,30.27,South,180,2.8,5.0,78,0.00,CLR,,0.00,WeatherDisplay:10.37,2013-11-11 02:29:00,
2013-11-10 20:34:00,40.6,34.3,30.27,South,178,3.0,3.5,78,0.00,CLR,,0.00,WeatherDisplay:10.37,2013-11-11 02:34:00,
2013-11-10 20:39:00,40.5,34.2,30.27,SSE,166,0.9,2.3,78,0.00,CLR,,0.00,WeatherDisplay:10.37,2013-11-11 02:39:00,
2013-11-10 20:44:00,40.3,34.3,30.27,SSE,167,1.5,3.5,79,0.00,CLR,,0.00,WeatherDisplay:10.37,2013-11-11 02:44:00,
2013-11-10 20:49:00,40.2,34.2,30.27,South,180,1.8,4.0,79,0.00,CLR,,0.00,WeatherDisplay:10.37,2013-11-11 02:49:00,
2013-11-10 20:54:00,40.0,34.0,30.27,South,177,2.0,3.5,79,0.00,CLR,,0.00,WeatherDisplay:10.37,2013-11-11 02:54:00,
2013-11-10 20:59:00,39.8,34.1,30.27,SSE,165,0.2,2.3,80,0.00,CLR,,0.00,WeatherDisplay:10.37,2013-11-11 02:59:00,
2013-11-10 21:04:00,39.6,33.9,30.27,SSE,157,0.7,3.5,80,0.00,CLR,,0.00,WeatherDisplay:10.37,2013-11-11 03:04:00,
2013-11-10 21:09:00,39.7,34.0,30.27,South,178,2.0,2.3,80,0.00,CLR,,0.00,WeatherDisplay:10.37,2013-11-11 03:09:00,
2013-11-10 21:14:00,39.8,34.1,30.27,SSW,202,3.2,4.6,80,0.00,CLR,,0.00,WeatherDisplay:10.37,2013-11-11 03:14:00,
2013-11-10 21:19:00,39.8,34.1,30.27,South,172,2.0,3.5,80,0.00,CLR,,0.00,WeatherDisplay:10.37,2013-11-11 03:19:00,
2013-11-10 21:24:00,39.8,34.1,30.26,South,174,0.6,3.5,80,0.00,CLR,,0.00,WeatherDisplay:10.37,2013-11-11 03:24:00,
2013-11-10 21:29:00,39.8,34.1,30.26,South,186,2.0,4.0,80,0.00,CLR,,0.00,WeatherDisplay:10.37,2013-11-11 03:29:00,
2013-11-10 21:34:00,40.0,34.3,30.26,South,171,2.7,3.5,80,0.00,CLR,,0.00,WeatherDisplay:10.37,2013-11-11 03:34:00,
2013-11-10 21:39:00,40.1,34.4,30.26,SSE,148,2.0,3.5,80,0.00,CLR,,0.00,WeatherDisplay:10.37,2013-11-11 03:39:00,
2013-11-10 21:44:00,40.3,34.3,30.25,South,173,2.2,3.5,79,0.00,CLR,,0.00,WeatherDisplay:10.37,2013-11-11 03:44:00,
2013-11-10 21:49:00,40.5,34.5,30.25,SSE,155,3.5,4.6,79,0.00,CLR,,0.00,WeatherDisplay:10.37,2013-11-11 03:49:00,
2013-11-10 21:54:00,40.6,34.6,30.25,South,171,1.6,4.0,79,0.00,CLR,,0.00,WeatherDisplay:10.37,2013-11-11 03:54:00,
2013-11-10 21:59:00,40.6,34.6,30.26,South,169,2.6,3.5,79,0.00,CLR,,0.00,WeatherDisplay:10.37,2013-11-11 03:59:00,
2013-11-10 22:05:00,40.7,34.7,30.26,SSE,153,2.2,3.5,79,0.00,CLR,,0.00,WeatherDisplay:10.37,2013-11-11 04:05:00,
2013-11-10 22:10:00,40.9,34.6,30.25,SSE,151,3.2,4.6,78,0.00,CLR,,0.00,WeatherDisplay:10.37,2013-11-11 04:10:00,
2013-11-10 22:15:00,41.0,34.7,30.26,South,186,3.4,4.6,78,0.00,CLR,,0.00,WeatherDisplay:10.37,2013-11-11 04:15:00,
2013-11-10 22:20:00,41.0,34.7,30.26,SSW,192,3.4,5.8,78,0.00,CLR,,0.00,WeatherDisplay:10.37,2013-11-11 04:20:00,
2013-11-10 22:26:00,41.1,34.8,30.25,SSW,197,3.2,6.9,78,0.00,CLR,,0.00,WeatherDisplay:10.37,2013-11-11 04:26:00,
2013-11-10 22:31:00,41.0,34.7,30.25,SSW,194,5.6,8.1,78,0.00,CLR,,0.00,WeatherDisplay:10.37,2013-11-11 04:31:00,
2013-11-10 22:36:00,41.0,34.7,30.25,South,169,4.0,6.9,78,0.00,CLR,,0.00,WeatherDisplay:10.37,2013-11-11 04:36:00,
2013-11-10 22:41:00,41.0,34.7,30.25,SSW,200,3.9,8.1,78,0.00,CLR,,0.00,WeatherDisplay:10.37,2013-11-11 04:41:00,
2013-11-10 22:47:00,41.0,34.7,30.25,South,175,2.7,3.5,78,0.00,CLR,,0.00,WeatherDisplay:10.37,2013-11-11 04:47:00,
2013-11-10 22:52:00,40.9,34.9,30.24,SSW,197,2.8,4.6,79,0.00,CLR,,0.00,WeatherDisplay:10.37,2013-11-11 04:52:00,
2013-11-10 22:58:00,40.8,34.8,30.24,SE,146,4.2,5.8,79,0.00,CLR,,0.00,WeatherDisplay:10.37,2013-11-11 04:58:00,
2013-11-10 23:01:00,40.8,34.8,30.24,South,173,2.8,4.6,79,0.00,CLR,,0.00,WeatherDisplay:10.37,2013-11-11 05:01:00,
2013-11-10 23:02:00,40.8,34.8,30.24,SSW,204,3.6,4.0,79,0.00,CLR,,0.00,WeatherDisplay:10.37,2013-11-11 05:02:00,
2013-11-10 23:03:00,40.8,34.8,30.24,South,190,3.5,4.6,79,0.00,CLR,,0.00,WeatherDisplay:10.37,2013-11-11 05:03:00,
2013-11-10 23:08:00,40.8,34.8,30.24,South,186,3.9,4.6,79,0.00,CLR,,0.00,WeatherDisplay:10.37,2013-11-11 05:08:00,
2013-11-10 23:13:00,40.8,34.8,30.24,SSW,197,3.0,5.8,79,0.00,CLR,,0.00,WeatherDisplay:10.37,2013-11-11 05:13:00,
2013-11-10 23:18:00,40.8,34.8,30.24,SSW,198,4.8,5.8,79,0.00,CLR,,0.00,WeatherDisplay:10.37,2013-11-11 05:18:00,
2013-11-10 23:23:00,40.9,34.6,30.25,SSW,196,5.8,8.1,78,0.00,CLR,,0.00,WeatherDisplay:10.37,2013-11-11 05:23:00,
2013-11-10 23:28:00,40.9,34.6,30.25,SSE,164,5.7,6.9,78,0.00,CLR,,0.00,WeatherDisplay:10.37,2013-11-11 05:28:00,
2013-11-10 23:33:00,40.9,34.9,30.24,SSW,195,4.8,6.9,79,0.00,CLR,,0.00,WeatherDisplay:10.37,2013-11-11 05:33:00,
2013-11-10 23:38:00,40.8,34.8,30.24,SSW,200,4.1,5.0,79,0.00,CLR,,0.00,WeatherDisplay:10.37,2013-11-11 05:38:00,
2013-11-10 23:44:00,40.7,35.0,30.24,South,187,3.0,5.0,80,0.00,CLR,,0.00,WeatherDisplay:10.37,2013-11-11 05:44:00,
2013-11-10 23:49:00,40.6,34.9,30.23,South,175,2.7,5.0,80,0.00,CLR,,0.00,WeatherDisplay:10.37,2013-11-11 05:49:00,
2013-11-10 23:54:00,40.6,34.9,30.23,South,185,4.0,5.8,80,0.00,CLR,,0.00,WeatherDisplay:10.37,2013-11-11 05:54:00,